Regional Weather Roundup
Issued by NWS

Current Version | Previous Version | Text Only | Print | Product List | Glossary On
Versions: 1 2 3 4 5 6 7 8 9 10 11 12 13 14 15 16 17 18 19 20 21 22 23 24 25 26 27 28 29 30 31 32 33 34 35 36 37 38 39 40 41 42 43 44 45 46 47 48 49 50
000
ASUS44 KLIX 171516
RWRLA
LOUISIANA WEATHER ROUNDUP
NATIONAL WEATHER SERVICE NEW ORLEANS LA
1000 AM CDT TUE SEP 17 2019

NOTE: "FAIR" INDICATES FEW OR NO CLOUDS BELOW 12,000 FEET WITH NO
      SIGNIFICANT WEATHER AND/OR OBSTRUCTIONS TO VISIBILITY.
      SKY/WX - SKY CONDITION AND SIGNIFICANT WEATHER.
      TMP - AIR TEMPERATURE.    DP   - DEWPOINT TEMPERATURE.
      RH  - RELATIVE HUMIDITY.  PRES - PRESSURE.
      HX  - HEAT INDEX.         WCI  - WIND CHILL INDEX.

*  THESE STATIONS ARE NOT NWS OR FAA STATIONS AND ARE NOT UNDER
   NWS QUALITY CONTROL.

LAZ040-048-061>063-065-066-069-171600-
SOUTHEAST LOUISIANA

CITY           SKY/WX    TMP DP  RH WIND       PRES   REMARKS
N.O. INTL ARPT PTSUNNY   87  75  67 SE8       30.03R HX  96
N.O. LAKEFRONT FAIR      85  75  72 E8        30.04R
N.O. DOWNTOWN* PTSUNNY   85  75  72 VRB3      30.05R
RESERVE*       FAIR      88  79  75 SE5       30.04R HX 103
SLIDELL        FAIR      86  76  71 NE6       30.03R HX  96
BATON ROUGE    PTSUNNY   82  76  81 E9        30.04R
BOOTHVILLE     FAIR      84  78  82 VRB3      30.04R HX  95
BELLE CHASSE   PTSUNNY   85  80  85 E7        30.03R HX  99
BOGALUSA*      FAIR      85  74  68 E3        30.06R
GALLIANO*      PTSUNNY   85  76  73 E5        30.02S HX  95
NEW ROADS*     FAIR      81  75  83 E5          N/A
GONZALES*      FAIR      85  79  82 SE5       30.03R HX  98
HAMMOND*       FAIR      82  77  83 E6        30.05R
HOUMA*         PTSUNNY   86  79  79 SE12      30.03R HX  99
PORT FOURCHON* SUNNY     84  81  89 S7        30.03R HX  98

$$

LAZ041-044-053-054-171600-
SOUTHWEST LOUISIANA

CITY           SKY/WX    TMP DP  RH WIND       PRES   REMARKS
LAKE CHARLES   PTSUNNY   85  78  80 SE12      29.99R HX  96
LAFAYETTE      CLOUDY    82  77  84 E5        30.01S
PATTERSON      PTSUNNY   86  79  79 SE8       30.03R HAZE    HX  99
SALT POINT       N/A     85  79  82 MISG      30.00R HX  98
NEW IBERIA     PTSUNNY   84  79  85 SE7       30.02R HX  96
CHENAULT AIRPK PTSUNNY   82  77  83 E14G21    30.00R

$$

LAZ027-028-171600-
CENTRAL LOUISIANA

CITY           SKY/WX    TMP DP  RH WIND       PRES   REMARKS
FORT POLK      CLOUDY    81  74  79 SE7       30.01R
ALEXANDRIA INT FAIR      81  74  79 E5        30.02R
ALEXANDRIA     FAIR      81  74  79 E5        30.04R

$$

LAZ001-002-171600-
NORTHWEST LOUISIANA

CITY           SKY/WX    TMP DP  RH WIND       PRES   REMARKS
SHREVEPORT     MOSUNNY   85  72  65 E9        30.03R
BARKSDALE AFB  MOSUNNY   82  72  69 E6        30.03R
DTN SHREVEPORT SUNNY     85  72  65 E9        30.03S

$$

LAZ014-016-171600-
NORTHEAST LOUISIANA

CITY           SKY/WX    TMP DP  RH WIND       PRES   REMARKS
MONROE         FAIR      86  74  67 E3        30.05S
TALLULAH       FAIR      87  72  60 VRB3      30.05R

$$




USA.gov is the U.S. government's official web portal to all federal, state and local government web resources and services.